Regional Weather Roundup
Issued by NWS

Current Version | Previous Version | Text Only | Print | Product List | Glossary Off
Versions: 1 2 3 4 5 6 7 8 9 10 11 12 13 14 15 16 17 18 19 20 21 22 23 24 25 26 27 28 29 30 31 32 33 34 35 36 37 38 39 40 41 42 43 44 45 46 47 48 49 50

000
ASUS44 KJAN 260310
RWRMS

MISSISSIPPI HOURLY WEATHER ROUNDUP
NATIONAL WEATHER SERVICE JACKSON MS
1000 PM CDT WED MAY 25 2016

NOTE: "FAIR: INDICATES FEW OR NO CLOUDS BELOW 12,000 FEET WITH NO
SIGNIFICANT WEATHER AND/OR OBSTRUCTIONS TO VISIBILITY.

MSZ001>002-007>008-010>013-018>021-025>028-034>036-260400-
NORTHWEST MISSISSIPPI

CITY           SKY/WX    TMP DP  RH WIND       PRES   REMARKS
BATESVILLE     MOCLDY    77  66  68 E5        30.10R
CLARKSDALE     CLOUDY    81  70  69 SE10      30.07R
CLEVELAND      CLOUDY    81  71  70 SE7       30.06R
GREENWOOD      MOCLDY    80  64  58 SE7       30.08R
GREENVILLE     MOCLDY    80  65  59 S9        30.07R
OLIVE BRANCH   PTCLDY    68  68 100 SE12G17   30.09S
OXFORD         FAIR      73  59  60 SE8       30.13R
TUNICA         MOCLDY    73  68  83 SE10      30.07S
WINONA         MOCLDY    76  67  74 CALM      30.10S
$$

MSZ003>006-009-014>017-022>024-029>033-037>039-260400-
NORTHEAST MISSISSIPPI

CITY           SKY/WX    TMP DP  RH WIND       PRES   REMARKS
COLUMBUS AFB   CLEAR     73  65  74 SE5       30.12S
CORINTH          N/A    N/A N/A N/A MISG        N/A
GOLDN TRIANGLE PTCLDY    79  59  50 SE8       30.14R
STARKVILLE     FAIR      77  63  61 E6        30.13R
TUPELO         PTCLDY    73  61  65 E6        30.13R
$$

MSZ040-058-260400-
CENTRAL MISSISSIPPI

CITY           SKY/WX    TMP DP  RH WIND       PRES   REMARKS
JACKSON INTL   TSTM      78  71  79 S25G35    30.04F
JACKSON HAWKNS CLOUDY    78  71  79 S17G29    30.07F
MADISON        FAIR      77  70  78 CALM      30.08R
MERIDIAN KEY   CLOUDY    81  64  56 S9        30.12S
MERIDIAN NAS   CLOUDY    77  62  59 SE5       30.12F
VICKSBURG TVR  PTCLDY    75  67  76 S9        30.08R
VICKSBURG VKS  MOCLDY    75  68  78 VRB5      30.08R
$$

MSZ059>079-260400-
SOUTH MISSISSIPPI

CITY           SKY/WX    TMP DP  RH WIND       PRES   REMARKS
BROOKHAVEN     FAIR     N/A N/A N/A SE9       30.15R
COLUMBIA       FAIR      75  70  83 S6        30.19R
HATTIESBURG    CLOUDY    76  68  76 S3        30.16R
MCCOMB         PTCLDY    77  70  79 SE7       30.15R
NATCHEZ        CLOUDY    81  72  74 S12G18    30.09S
PINE BELT      CLOUDY    75  66  73 S7        30.16F
$$

MSZ080>082-260400-
COASTAL MISSISSIPPI

CITY           SKY/WX    TMP DP  RH WIND       PRES   REMARKS
BILOXI         PTCLDY    77  69  76 SE5       30.14S
PASCAGOULA     PTCLDY    67  66  97 CALM      30.15S
GULFPORT       PTCLDY    76  68  76 CALM      30.14R
$$



USA.gov is the U.S. government's official web portal to all federal, state and local government web resources and services.